Waarnemingen

Advertentie
Mijn weer
Kleine Brogel, België (6479): temperatuur & dauwpunt: 13.07.2019 21:00:00 - 19.07.2019 21:00:00 (CEST)Kleine Brogel, België (6479): windsnelheid & windstoten: 13.07.2019 21:00:00 - 19.07.2019 21:00:00 (CEST)Kleine Brogel, België (6479): windrichting: 13.07.2019 21:00:00 - 19.07.2019 21:00:00 (CEST)Kleine Brogel, België (6479): luchtdruk: 13.07.2019 21:00:00 - 19.07.2019 21:00:00 (CEST)Kleine Brogel, België (6479): zicht: 13.07.2019 21:00:00 - 19.07.2019 21:00:00 (CEST)
Datum & Tijd tt [°C] td [°C] ff [km/u] ff [kn] fx [km/u] fx [kn] dd ppp [hPa] vv [km]
19.07.2019 21:00:00 23,2 11,8 4 2 14 8 - 1013,3 20
19.07.2019 20:00:00 23,7 10,9 11 6 - - WZW 1013,6 20
19.07.2019 19:00:00 24,3 10,3 18 10 25 14 ZW 1013,5 20
19.07.2019 18:00:00 25,0 10,6 11 6 25 14 ZW 1013,7 20
19.07.2019 17:00:00 25,2 10,5 18 10 - - ZW 1013,8 20
19.07.2019 16:00:00 25,1 11,5 11 6 25 14 ZW 1014,2 20
19.07.2019 15:00:00 24,5 12,0 11 6 29 16 ZW 1014,3 20
19.07.2019 14:00:00 23,9 12,1 11 6 - - ZW 1014,3 20
19.07.2019 13:00:00 23,6 12,7 11 6 25 14 ZW 1014,3 15
19.07.2019 12:00:00 22,9 13,5 11 6 25 14 ZZW 1014,5 15
19.07.2019 11:00:00 21,2 13,7 14 8 - - ZW 1014,7 15
19.07.2019 10:00:00 19,2 13,2 11 6 22 12 ZZW 1014,7 15
19.07.2019 09:00:00 18,5 13,0 14 8 18 10 ZW 1014,5 15
19.07.2019 08:00:00 18,0 13,4 7 4 - - WZW 1014,0 15
19.07.2019 07:00:00 15,8 13,8 4 2 7 4 N 1013,8 15
19.07.2019 06:00:00 15,8 14,2 4 2 11 6 N 1013,6 19
19.07.2019 05:00:00 17,1 14,3 7 4 - - ZW 1013,5 20
19.07.2019 04:00:00 17,2 14,7 7 4 14 8 ZW 1013,5 20
19.07.2019 03:00:00 17,3 14,6 7 4 11 6 ZZW 1013,5 20
19.07.2019 02:00:00 17,3 14,5 4 2 - - N 1013,2 20
19.07.2019 01:00:00 17,5 14,4 4 2 7 4 N 1013,2 20
19.07.2019 00:00:00 17,8 14,3 4 2 7 4 N 1013,0 20
18.07.2019 23:00:00 18,6 14,1 4 2 - - N 1012,8 20
18.07.2019 22:00:00 19,3 13,7 11 6 29 16 WZW 1012,7 20
18.07.2019 21:00:00 20,2 13,8 14 8 29 16 W 1012,2 20
18.07.2019 20:00:00 22,5 13,2 14 8 - - WZW 1011,5 20
18.07.2019 19:00:00 22,6 12,6 14 8 25 14 WZW 1011,6 20
18.07.2019 18:00:00 23,2 12,5 14 8 29 16 ZW 1011,5 20
18.07.2019 17:00:00 23,1 11,1 18 10 - - WZW 1011,6 20
18.07.2019 16:00:00 23,5 10,9 22 12 29 16 WZW 1011,7 20
18.07.2019 15:00:00 24,1 11,5 18 10 29 16 ZW 1011,7 20
18.07.2019 14:00:00 23,3 11,1 18 10 - - ZW 1011,6 20
18.07.2019 13:00:00 23,1 11,4 25 14 40 21 ZW 1011,7 20
18.07.2019 12:00:00 23,4 10,3 18 10 29 16 ZW 1011,6 20
18.07.2019 11:00:00 22,8 9,3 14 8 - - WZW 1011,7 20
18.07.2019 10:00:00 20,7 12,1 7 4 25 14 ZW 1011,8 20
18.07.2019 09:00:00 20,3 12,4 18 10 25 14 ZW 1012,0 17
18.07.2019 08:00:00 18,3 12,0 7 4 - - ZZW 1011,7 15
18.07.2019 07:00:00 15,3 11,9 4 2 7 4 - 1011,8 10
18.07.2019 06:00:00 13,3 11,2 4 2 4 2 N 1012,1 13
18.07.2019 05:00:00 13,8 11,3 2 1 - - - 1012,1 7
18.07.2019 04:00:00 14,3 11,6 4 2 4 2 N 1012,5 14
18.07.2019 03:00:00 14,3 11,6 4 2 4 2 N 1013,0 19
18.07.2019 02:00:00 13,9 12,1 4 2 - - N 1013,2 18
18.07.2019 01:00:00 14,3 11,9 4 2 7 4 N 1013,3 19
18.07.2019 00:00:00 15,1 12,3 4 2 0 0 N 1013,5 18
17.07.2019 23:00:00 16,6 12,6 4 2 - - N 1013,6 20
17.07.2019 22:00:00 18,5 12,4 0 0 4 2 N 1013,7 6
17.07.2019 21:00:00 20,7 12,2 4 2 7 4 N 1013,7 20
17.07.2019 20:00:00 22,3 11,8 4 2 - - N 1013,7 20
17.07.2019 19:00:00 23,2 11,1 4 2 14 8 N 1013,8 20
17.07.2019 18:00:00 23,3 10,4 7 4 18 10 O 1014,2 20
17.07.2019 17:00:00 24,4 11,3 11 6 - - O 1014,7 20
17.07.2019 16:00:00 23,1 11,2 11 6 18 10 NO 1015,2 20
17.07.2019 15:00:00 23,8 11,2 7 4 18 10 NNO 1015,2 20
17.07.2019 14:00:00 23,2 11,5 7 4 - - N 1015,7 20
17.07.2019 13:00:00 21,7 11,5 4 2 14 8 N 1016,2 20
17.07.2019 12:00:00 20,0 11,1 7 4 14 8 NO 1016,6 20
17.07.2019 11:00:00 20,3 10,9 4 2 - - N 1016,6 20
17.07.2019 10:00:00 17,9 10,9 7 4 11 6 ONO 1016,8 20
17.07.2019 09:00:00 17,3 12,5 4 2 7 4 N 1016,8 8
17.07.2019 08:00:00 14,1 12,4 4 2 - - N 1016,8 7
17.07.2019 07:00:00 11,6 10,9 0 0 4 2 N 1017,1 4,0
17.07.2019 06:00:00 9,8 9,5 2 1 0 0 - 1017,3 4,0
17.07.2019 05:00:00 9,1 8,9 2 1 - - - 1017,2 4,6
17.07.2019 04:00:00 9,3 8,8 4 2 0 0 N 1017,3 0,2
17.07.2019 03:00:00 9,8 9,2 4 2 4 2 N 1017,7 2,2
17.07.2019 02:00:00 10,6 9,6 2 1 - - - 1017,8 0,6
17.07.2019 01:00:00 11,5 10,1 4 2 0 0 N 1018,1 4,8
17.07.2019 00:00:00 12,3 10,6 0 0 0 0 N 1018,2 11
16.07.2019 23:00:00 14,1 10,8 4 2 - - N 1018,2 19
16.07.2019 22:00:00 15,6 10,8 4 2 11 6 N 1018,1 20
16.07.2019 21:00:00 18,2 10,8 4 2 11 6 N 1018,0 20
16.07.2019 20:00:00 19,7 10,9 7 4 - - N 1018,0 20
16.07.2019 19:00:00 20,6 10,3 7 4 11 6 WNW 1018,1 20
16.07.2019 18:00:00 20,9 10,7 4 2 14 8 N 1018,3 20
16.07.2019 17:00:00 20,0 10,5 4 2 - - N 1018,8 20
16.07.2019 16:00:00 18,5 10,0 4 2 18 10 N 1019,5 20
16.07.2019 15:00:00 17,7 10,2 7 4 14 8 ZW 1019,7 15
16.07.2019 14:00:00 17,4 10,3 7 4 - - WZW 1020,0 15
16.07.2019 13:00:00 16,4 10,7 7 4 14 8 W 1020,2 15
16.07.2019 12:00:00 16,0 11,0 8 4 - - WNW - 10
16.07.2019 11:00:00 14,8 11,3 8 4 - - WZW 1020,7 10
16.07.2019 10:00:00 14,6 12,1 4 2 7 4 N 1020,6 14
16.07.2019 09:00:00 13,2 12,2 5 3 7 4 ZW 1020,6 10
16.07.2019 08:00:00 12,1 11,5 4 2 - - N 1020,6 14
16.07.2019 07:00:00 10,8 10,6 4 2 7 4 - 1020,3 10
16.07.2019 06:00:00 9,3 9,1 4 2 4 2 N 1020,2 8
16.07.2019 05:00:00 9,1 8,7 2 1 - - - 1020,2 3,1
16.07.2019 04:00:00 8,6 8,2 4 2 4 2 N 1020,5 0,2
16.07.2019 03:00:00 9,3 8,7 4 2 4 2 N 1020,7 0,9
16.07.2019 02:00:00 10,1 9,2 4 2 - - N 1020,8 2,8
16.07.2019 01:00:00 10,6 9,9 4 2 7 4 N 1020,8 20
16.07.2019 00:00:00 11,1 10,1 4 2 7 4 N 1020,7 20
15.07.2019 23:00:00 12,3 10,7 4 2 - - N 1020,7 20
15.07.2019 22:00:00 14,5 11,0 4 2 14 8 N 1020,6 20
15.07.2019 21:00:00 16,8 10,7 7 4 18 10 NNW 1020,2 20
15.07.2019 20:00:00 17,5 9,6 7 4 - - NW 1020,2 20
15.07.2019 19:00:00 18,0 10,4 7 4 18 10 NNW 1020,2 20
15.07.2019 18:00:00 17,7 10,1 9 5 14 8 NNW 1020,7 10
15.07.2019 17:00:00 17,6 9,2 7 4 - - N 1020,8 15
15.07.2019 16:00:00 18,2 8,7 11 6 22 12 N 1020,8 15
15.07.2019 15:00:00 17,1 9,6 11 6 18 10 NW 1021,0 15
15.07.2019 14:00:00 16,4 10,5 11 6 - - NW 1021,2 15
15.07.2019 13:00:00 16,2 10,8 5 3 11 6 WNW 1021,2 10
15.07.2019 12:00:00 14,7 11,4 4 2 18 10 N 1021,2 15
15.07.2019 11:00:00 15,3 11,3 4 2 - - N 1021,1 15
15.07.2019 10:00:00 15,1 11,5 7 4 11 6 N 1021,1 15
15.07.2019 09:00:00 14,3 11,7 4 2 7 4 N 1021,1 15
15.07.2019 08:00:00 13,4 11,5 4 2 - - N 1021,0 15
15.07.2019 07:00:00 12,3 10,7 4 2 4 2 N 1020,7 15
15.07.2019 06:00:00 11,5 10,3 2 1 4 2 - 1020,7 10
15.07.2019 05:00:00 10,6 10,2 4 2 - - N 1020,6 12
15.07.2019 04:00:00 9,8 8,9 2 1 4 2 - 1020,7 10
15.07.2019 03:00:00 10,1 9,1 4 2 4 2 - 1021,1 7
15.07.2019 02:00:00 11,1 9,8 4 2 - - N 1021,2 20
15.07.2019 01:00:00 12,6 10,1 4 2 14 8 N 1021,2 20
15.07.2019 00:00:00 15,1 10,0 7 4 22 12 N 1021,2 20
14.07.2019 23:00:00 15,9 10,8 14 8 - - N 1021,0 20
14.07.2019 22:00:00 16,7 12,1 11 6 18 10 NNW 1020,7 20
14.07.2019 21:00:00 17,0 12,2 7 4 18 10 NNW 1020,5 20
14.07.2019 20:00:00 17,2 11,7 9 5 - - N 1020,5 10
14.07.2019 19:00:00 18,6 12,1 11 6 22 12 NNW 1020,3 20
14.07.2019 18:00:00 18,7 12,1 11 6 22 12 N 1020,2 20
14.07.2019 17:00:00 17,4 12,2 11 6 - - NNW 1020,6 20
14.07.2019 16:00:00 18,3 12,2 7 4 22 12 NW 1020,6 20
14.07.2019 15:00:00 18,0 11,6 11 6 22 12 NNW 1020,7 10
14.07.2019 14:00:00 17,9 11,6 11 6 - - N 1020,8 20
14.07.2019 13:00:00 16,8 11,9 4 2 14 8 N 1021,1 20
14.07.2019 12:00:00 15,8 12,4 8 4 18 10 NW 1021,3 10
14.07.2019 11:00:00 15,8 11,6 11 6 - - NNW 1021,2 20
14.07.2019 10:00:00 14,8 11,6 7 4 18 10 N 1021,2 18
14.07.2019 09:00:00 15,1 10,6 7 4 14 8 NNW 1020,7 20
14.07.2019 08:00:00 14,5 9,9 7 4 - - NNW 1020,6 20
14.07.2019 07:00:00 14,3 10,1 7 4 11 6 NNW 1020,5 20
14.07.2019 06:00:00 14,1 10,2 4 2 11 6 - 1020,5 10
14.07.2019 05:00:00 14,2 10,1 4 2 - - N 1020,6 20
14.07.2019 04:00:00 14,6 10,5 7 4 11 6 N 1020,7 20
14.07.2019 03:00:00 14,8 11,6 7 4 11 6 NNW 1020,8 20
14.07.2019 02:00:00 14,6 13,1 4 2 - - N 1021,0 20
14.07.2019 01:00:00 15,3 12,7 7 4 14 8 NNW 1021,0 20
14.07.2019 00:00:00 15,6 12,0 5 3 18 10 NNW 1021,0 10
13.07.2019 23:00:00 16,0 12,4 11 6 - - N 1020,8 20
13.07.2019 22:00:00 17,2 13,3 11 6 25 14 NNW 1020,5 20
13.07.2019 21:00:00 17,6 13,6 7 4 25 14 N 1019,8 20

tt = temperatuur
td = dauwpunt
ff = windsnelheid
fx = windstoten
dd = windrichting
ppp = luchtdruk
vv = zicht

Weerstations in de omgeving